Time,TemperatureF,DewpointF,PressureIn,WindDirection,WindDirectionDegrees,WindSpeedMPH,WindSpeedGustMPH,Humidity,HourlyPrecipIn,Conditions,Clouds,dailyrainin,SoftwareType,DateUTC
2013-02-08 00:06:00,32.6,25.0,30.33,SE,128,1.0,5.0,73,0.00,,,0.00,weatherlink.com 1.10,2013-02-08 05:06:00,
2013-02-08 00:21:00,32.9,25.0,30.32,ENE,78,2.0,7.0,74,0.00,,,0.00,weatherlink.com 1.10,2013-02-08 05:21:00,
2013-02-08 00:36:00,33.1,26.0,30.30,East,91,3.0,7.0,74,0.00,,,0.00,weatherlink.com 1.10,2013-02-08 05:36:00,
2013-02-08 00:51:00,33.4,26.0,30.30,ESE,120,1.0,8.0,74,0.00,,,0.00,weatherlink.com 1.10,2013-02-08 05:51:00,
2013-02-08 01:06:00,33.6,26.0,30.30,ENE,74,3.0,7.0,75,0.00,,,0.00,weatherlink.com 1.10,2013-02-08 06:06:00,
2013-02-08 01:22:00,34.2,27.0,30.30,ESE,102,4.0,10.0,75,0.00,,,0.00,weatherlink.com 1.10,2013-02-08 06:22:00,
2013-02-08 01:37:00,34.7,28.0,30.29,South,174,1.0,12.0,75,0.00,,,0.00,weatherlink.com 1.10,2013-02-08 06:37:00,
2013-02-08 01:52:00,34.8,28.0,30.28,SE,138,5.0,12.0,75,0.00,,,0.00,weatherlink.com 1.10,2013-02-08 06:52:00,
2013-02-08 02:07:00,34.8,28.0,30.27,ESE,112,9.0,12.0,75,0.00,,,0.00,weatherlink.com 1.10,2013-02-08 07:07:00,
2013-02-08 02:22:00,34.9,28.0,30.26,East,94,5.0,13.0,75,0.00,,,0.00,weatherlink.com 1.10,2013-02-08 07:22:00,
2013-02-08 02:37:00,34.9,28.0,30.26,ESE,122,1.0,9.0,76,0.00,,,0.00,weatherlink.com 1.10,2013-02-08 07:37:00,
2013-02-08 02:52:00,34.9,28.0,30.25,SE,124,2.0,11.0,76,0.00,,,0.00,weatherlink.com 1.10,2013-02-08 07:52:00,
2013-02-08 03:07:00,34.8,28.0,30.25,South,183,2.0,8.0,77,0.00,,,0.00,weatherlink.com 1.10,2013-02-08 08:07:00,
2013-02-08 03:37:00,34.5,28.0,30.22,East,97,2.0,10.0,77,0.00,,,0.00,weatherlink.com 1.10,2013-02-08 08:37:00,
2013-02-08 03:52:00,34.1,28.0,30.21,East,93,0.0,7.0,77,0.00,,,0.00,weatherlink.com 1.10,2013-02-08 08:52:00,
2013-02-08 04:07:00,33.8,27.0,30.20,East,82,2.0,7.0,77,0.00,,,0.00,weatherlink.com 1.10,2013-02-08 09:07:00,
2013-02-08 04:22:00,33.4,27.0,30.20,ESE,115,1.0,5.0,77,0.00,,,0.00,weatherlink.com 1.10,2013-02-08 09:22:00,
2013-02-08 04:37:00,33.2,27.0,30.19,East,89,2.0,6.0,77,0.00,,,0.00,weatherlink.com 1.10,2013-02-08 09:37:00,
2013-02-08 04:52:00,33.2,27.0,30.18,East,94,3.0,8.0,77,0.00,,,0.00,weatherlink.com 1.10,2013-02-08 09:52:00,
2013-02-08 05:07:00,33.3,27.0,30.18,East,79,2.0,6.0,77,0.00,,,0.00,weatherlink.com 1.10,2013-02-08 10:07:00,
2013-02-08 05:22:00,33.5,27.0,30.17,ESE,102,2.0,7.0,78,0.00,,,0.00,weatherlink.com 1.10,2013-02-08 10:22:00,
2013-02-08 05:37:00,33.9,28.0,30.17,NE,50,3.0,8.0,78,0.00,,,0.00,weatherlink.com 1.10,2013-02-08 10:37:00,
2013-02-08 05:52:00,34.0,28.0,30.16,ENE,77,2.0,5.0,78,0.00,,,0.00,weatherlink.com 1.10,2013-02-08 10:52:00,
2013-02-08 06:07:00,34.0,28.0,30.14,NNE,30,2.0,5.0,79,0.00,,,0.00,weatherlink.com 1.10,2013-02-08 11:07:00,
2013-02-08 06:22:00,33.7,29.0,30.13,SE,134,4.0,7.0,84,0.00,,,0.00,weatherlink.com 1.10,2013-02-08 11:22:00,
2013-02-08 06:37:00,33.6,30.0,30.13,ESE,118,1.0,7.0,88,0.00,,,0.00,weatherlink.com 1.10,2013-02-08 11:37:00,
2013-02-08 06:52:00,33.3,31.0,30.13,East,91,2.0,8.0,90,0.00,,,0.00,weatherlink.com 1.10,2013-02-08 11:52:00,
2013-02-08 07:07:00,33.1,31.0,30.12,NNW,330,1.0,5.0,91,0.00,,,0.00,weatherlink.com 1.10,2013-02-08 12:07:00,
2013-02-08 07:22:00,33.1,31.0,30.12,SE,127,1.0,4.0,92,0.00,,,0.00,weatherlink.com 1.10,2013-02-08 12:22:00,
2013-02-08 07:37:00,33.1,31.0,30.11,ESE,122,1.0,6.0,93,0.00,,,0.00,weatherlink.com 1.10,2013-02-08 12:37:00,
2013-02-08 07:52:00,33.2,31.0,30.11,ESE,110,1.0,5.0,93,0.00,,,0.00,weatherlink.com 1.10,2013-02-08 12:52:00,
2013-02-08 08:08:00,33.5,32.0,30.10,NE,55,0.0,8.0,94,0.00,,,0.00,weatherlink.com 1.10,2013-02-08 13:08:00,
2013-02-08 08:23:00,33.8,32.0,30.09,ESE,106,5.0,9.0,94,0.00,,,0.00,weatherlink.com 1.10,2013-02-08 13:23:00,
2013-02-08 08:38:00,34.1,32.0,30.08,ESE,103,10.0,11.0,93,0.00,,,0.00,weatherlink.com 1.10,2013-02-08 13:38:00,
2013-02-08 08:53:00,34.3,33.0,30.07,East,94,2.0,11.0,93,0.00,,,0.00,weatherlink.com 1.10,2013-02-08 13:53:00,
2013-02-08 09:08:00,34.2,32.0,30.06,SE,139,3.0,9.0,93,0.00,,,0.00,weatherlink.com 1.10,2013-02-08 14:08:00,
2013-02-08 09:23:00,34.2,32.0,30.05,East,101,3.0,10.0,93,0.00,,,0.00,weatherlink.com 1.10,2013-02-08 14:23:00,
2013-02-08 09:38:00,34.3,33.0,30.03,ENE,74,3.0,9.0,94,0.00,,,0.00,weatherlink.com 1.10,2013-02-08 14:38:00,
2013-02-08 09:53:00,34.5,33.0,30.02,ESE,108,2.0,8.0,93,0.00,,,0.00,weatherlink.com 1.10,2013-02-08 14:53:00,
2013-02-08 10:08:00,34.7,33.0,30.01,NE,52,7.0,9.0,93,0.00,,,0.00,weatherlink.com 1.10,2013-02-08 15:08:00,
2013-02-08 10:23:00,34.8,33.0,30.00,ESE,113,12.0,12.0,93,0.00,,,0.00,weatherlink.com 1.10,2013-02-08 15:23:00,
2013-02-08 10:38:00,34.9,33.0,29.98,SE,125,3.0,13.0,93,0.02,,,0.02,weatherlink.com 1.10,2013-02-08 15:38:00,
2013-02-08 10:53:00,35.0,33.0,29.97,East,90,1.0,11.0,93,0.04,,,0.04,weatherlink.com 1.10,2013-02-08 15:53:00,
2013-02-08 11:08:00,35.1,33.0,29.95,SE,126,4.0,12.0,93,0.06,,,0.06,weatherlink.com 1.10,2013-02-08 16:08:00,
2013-02-08 11:23:00,35.2,33.0,29.93,ESE,105,6.0,11.0,93,0.07,,,0.07,weatherlink.com 1.10,2013-02-08 16:23:00,
2013-02-08 11:38:00,35.3,34.0,29.92,ENE,75,1.0,7.0,93,0.07,,,0.09,weatherlink.com 1.10,2013-02-08 16:38:00,
2013-02-08 11:53:00,35.1,33.0,29.91,East,96,4.0,10.0,93,0.07,,,0.11,weatherlink.com 1.10,2013-02-08 16:53:00,
2013-02-08 12:08:00,35.0,33.0,29.90,WNW,298,3.0,12.0,93,0.07,,,0.01,weatherlink.com 1.10,2013-02-08 17:08:00,
2013-02-08 12:23:00,34.9,33.0,29.88,East,82,1.0,11.0,93,0.08,,,0.03,weatherlink.com 1.10,2013-02-08 17:23:00,
2013-02-08 12:38:00,34.9,33.0,29.85,ESE,117,3.0,11.0,93,0.10,,,0.07,weatherlink.com 1.10,2013-02-08 17:38:00,
2013-02-08 12:53:00,34.8,33.0,29.83,ENE,77,4.0,13.0,94,0.11,,,0.10,weatherlink.com 1.10,2013-02-08 17:53:00,
2013-02-08 13:08:00,34.6,33.0,29.81,ESE,112,7.0,15.0,93,0.11,,,0.12,weatherlink.com 1.10,2013-02-08 18:08:00,
2013-02-08 13:24:00,34.4,33.0,29.80,West,276,3.0,17.0,93,0.10,,,0.14,weatherlink.com 1.10,2013-02-08 18:24:00,
2013-02-08 13:39:00,34.1,32.0,29.78,ESE,110,3.0,14.0,93,0.08,,,0.15,weatherlink.com 1.10,2013-02-08 18:39:00,
2013-02-08 13:54:00,33.7,32.0,29.75,NE,34,4.0,19.0,93,0.05,,,0.15,weatherlink.com 1.10,2013-02-08 18:54:00,
2013-02-08 14:09:00,33.6,32.0,29.74,NNE,16,3.0,15.0,93,0.04,,,0.16,weatherlink.com 1.10,2013-02-08 19:09:00,
2013-02-08 14:24:00,33.6,32.0,29.73,ESE,118,9.0,16.0,93,0.03,,,0.17,weatherlink.com 1.10,2013-02-08 19:24:00,
2013-02-08 14:39:00,33.5,32.0,29.71,WNW,297,2.0,14.0,93,0.02,,,0.17,weatherlink.com 1.10,2013-02-08 19:39:00,
2013-02-08 14:54:00,33.5,32.0,29.71,ENE,77,9.0,24.0,93,0.03,,,0.18,weatherlink.com 1.10,2013-02-08 19:54:00,
2013-02-08 15:09:00,33.5,32.0,29.70,North,1,3.0,19.0,93,0.02,,,0.18,weatherlink.com 1.10,2013-02-08 20:09:00,
2013-02-08 15:24:00,33.4,32.0,29.69,ENE,74,5.0,16.0,93,0.01,,,0.18,weatherlink.com 1.10,2013-02-08 20:24:00,
2013-02-08 15:39:00,33.5,32.0,29.68,East,82,3.0,13.0,93,0.01,,,0.18,weatherlink.com 1.10,2013-02-08 20:39:00,
2013-02-08 15:54:00,33.5,32.0,29.67,NNE,33,9.0,14.0,93,0.00,,,0.18,weatherlink.com 1.10,2013-02-08 20:54:00,
2013-02-08 16:09:00,33.5,32.0,29.67,ENE,75,6.0,17.0,93,0.00,,,0.18,weatherlink.com 1.10,2013-02-08 21:09:00,
2013-02-08 16:24:00,33.3,32.0,29.67,NE,56,3.0,11.0,93,0.00,,,0.18,weatherlink.com 1.10,2013-02-08 21:24:00,
2013-02-08 16:39:00,33.1,32.0,29.67,East,93,3.0,17.0,94,0.00,,,0.18,weatherlink.com 1.10,2013-02-08 21:39:00,
2013-02-08 16:54:00,32.7,31.0,29.66,ESE,122,3.0,9.0,94,0.00,,,0.18,weatherlink.com 1.10,2013-02-08 21:54:00,
2013-02-08 17:09:00,32.7,32.0,29.65,ENE,70,3.0,10.0,95,0.00,,,0.18,weatherlink.com 1.10,2013-02-08 22:09:00,
2013-02-08 17:24:00,32.7,32.0,29.64,East,82,8.0,14.0,95,0.00,,,0.18,weatherlink.com 1.10,2013-02-08 22:24:00,
2013-02-08 17:39:00,32.5,31.0,29.63,NE,34,6.0,11.0,95,0.00,,,0.18,weatherlink.com 1.10,2013-02-08 22:39:00,
2013-02-08 17:54:00,32.6,31.0,29.62,NE,55,4.0,11.0,95,0.00,,,0.18,weatherlink.com 1.10,2013-02-08 22:54:00,
2013-02-08 18:09:00,32.6,31.0,29.62,NE,43,8.0,10.0,95,0.00,,,0.18,weatherlink.com 1.10,2013-02-08 23:09:00,
2013-02-08 18:24:00,32.3,31.0,29.61,NE,46,1.0,10.0,95,0.00,,,0.18,weatherlink.com 1.10,2013-02-08 23:24:00,
2013-02-08 18:39:00,31.9,31.0,29.60,ENE,74,3.0,9.0,95,0.00,,,0.18,weatherlink.com 1.10,2013-02-08 23:39:00,
2013-02-08 18:54:00,31.4,30.0,29.61,NW,311,6.0,17.0,94,0.00,,,0.18,weatherlink.com 1.10,2013-02-08 23:54:00,
2013-02-08 19:09:00,31.1,30.0,29.61,NNE,22,2.0,16.0,94,0.00,,,0.18,weatherlink.com 1.10,2013-02-09 00:09:00,
2013-02-08 19:24:00,30.8,29.0,29.60,NNE,16,9.0,13.0,94,0.00,,,0.18,weatherlink.com 1.10,2013-02-09 00:24:00,
2013-02-08 19:40:00,30.5,29.0,29.60,SSW,207,1.0,15.0,94,0.00,,,0.18,weatherlink.com 1.10,2013-02-09 00:40:00,
2013-02-08 19:55:00,30.3,29.0,29.59,ESE,123,4.0,16.0,93,0.00,,,0.18,weatherlink.com 1.10,2013-02-09 00:55:00,
2013-02-08 20:10:00,30.1,28.0,29.60,East,93,5.0,16.0,93,0.00,,,0.18,weatherlink.com 1.10,2013-02-09 01:10:00,
2013-02-08 20:25:00,29.9,28.0,29.59,NNW,330,9.0,17.0,93,0.00,,,0.18,weatherlink.com 1.10,2013-02-09 01:25:00,
2013-02-08 20:40:00,29.7,28.0,29.59,WNW,292,6.0,13.0,94,0.00,,,0.18,weatherlink.com 1.10,2013-02-09 01:40:00,
2013-02-08 20:55:00,29.4,28.0,29.58,NW,307,2.0,12.0,93,0.00,,,0.18,weatherlink.com 1.10,2013-02-09 01:55:00,
2013-02-08 21:10:00,29.2,28.0,29.59,West,259,2.0,12.0,94,0.00,,,0.18,weatherlink.com 1.10,2013-02-09 02:10:00,
2013-02-08 21:25:00,29.2,28.0,29.59,WNW,300,2.0,9.0,93,0.00,,,0.18,weatherlink.com 1.10,2013-02-09 02:25:00,
2013-02-08 21:40:00,29.3,28.0,29.59,NNW,327,5.0,10.0,93,0.00,,,0.18,weatherlink.com 1.10,2013-02-09 02:40:00,
2013-02-08 21:55:00,29.4,27.0,29.61,NNW,338,1.0,13.0,92,0.00,,,0.18,weatherlink.com 1.10,2013-02-09 02:55:00,
2013-02-08 22:10:00,29.3,28.0,29.63,NW,320,3.0,9.0,93,0.00,,,0.18,weatherlink.com 1.10,2013-02-09 03:10:00,
2013-02-08 22:25:00,29.0,28.0,29.65,SW,233,6.0,8.0,94,0.00,,,0.18,weatherlink.com 1.10,2013-02-09 03:25:00,
2013-02-08 22:40:00,29.0,28.0,29.67,WSW,255,1.0,9.0,95,0.00,,,0.18,weatherlink.com 1.10,2013-02-09 03:40:00,
2013-02-08 22:55:00,29.1,28.0,29.68,NNE,24,5.0,9.0,95,0.00,,,0.18,weatherlink.com 1.10,2013-02-09 03:55:00,
2013-02-08 23:10:00,29.0,28.0,29.68,WNW,302,3.0,10.0,95,0.00,,,0.18,weatherlink.com 1.10,2013-02-09 04:10:00,
2013-02-08 23:25:00,28.9,28.0,29.70,West,270,0.0,7.0,95,0.00,,,0.18,weatherlink.com 1.10,2013-02-09 04:25:00,
2013-02-08 23:40:00,28.3,27.0,29.70,East,79,5.0,11.0,95,0.00,,,0.18,weatherlink.com 1.10,2013-02-09 04:40:00,
2013-02-08 23:55:00,27.5,26.0,29.70,WSW,248,4.0,11.0,95,0.00,,,0.18,weatherlink.com 1.10,2013-02-09 04:55:00,